COSMOS 1275 DEB, 14405

Orbit data source: Space-Track

COSMOS 1275 DEB, 14405 is space debris in LEO originally from a launch on Thu, 04 Jun 1981 UTC launched from the Plesetsk Missile And Space Complex (PKMTR). Debris objects in space refer to the collection of defunct objects orbiting the Earth. Examples of debris include non-operational satellites, rocket bodies, and fragments generated from explosions, collisions, or faulty payload assembly.

Loading next visibility...
Identifier
14405, 1981-053JA
Orbit
LEO
Country
Flag of CISCIS
Related business
Manufacturer
Unknown
Mission
Spacecraft
Bus & Motor
Unknown
Mass
Unknown
Launch date (UTC)
1981-06-04 (45 years ago)
Launch vehicle
Unknown
Launch site
Plesetsk Missile And Space Complex (PKMTR)
Object type
Payload
Rocket body
Debris
Shape & HBR
Unknown shape, 0.1 m
Radar Cross Section
Medium (>0.1 m² and <1 m²)

Expand to show TLE details & history
Last TLE update: 12 hours ago

TLE from 12 hours ago
0 COSMOS 1275 DEB
1 14405U 81053JA  26235.98689484  .00000620  00000-0  53898-3 0  9999
2 14405  83.2623  58.8852 0068856 111.9805  40.7630 13.83387401254520
Epoch: 2026-08-23T23:41Z
TLE epoch observation values (Epoch: 2026-08-23T23:41:07.714Z)
Latitude
26.57433°
Longitude
-92.04205°
Altitude
917.058 km
Speed
7.415 km/s
True Right ascension
15h 42m 03s
True Declination
26° 26' 24"
Sunlit
Object was in daylight at epoch
Visualization orbit readout
Latitude
Unknown
Longitude
Unknown
Altitude
Unknown
Speed
Unknown
Apparent Right ascension
Unknown
Apparent Declination
Unknown
Sunlit
N/A
Visualization observer readout
Local Sidereal Time
02:29:41
Azimuth
Unknown
Elevation
Unknown
Doppler factor
Unknown
Orbital elements
Apogee altitude
999.473 km
Perigee altitude
898.57 km
Semi-major axis
7,327.159 km
Eccentricity
0.00689
Inclination
83.2623°
RAAN
58.8852°
Arg. of periapsis
111.9805°
True anomaly
41.28156°
Mean anomaly
40.763°
Eccentric anomaly
41.02194°
Mean motion
3.46051 °/min
Orbital period
104.03 mins
BSTAR
0.00053898
Loading maneuver chart data...
Computing Atmospheric mass density...

Documentation

Showing up to 5 results
|